This is the latest recevied weather packets stored in our database for station/object NO3U. If no packets are shown the sender has not sent any weather packets the latest 10 day(s).
| Time | Temp. | Humidity | Pressure | Rain* | Wind** | Luminosity | Snow |
|---|---|---|---|---|---|---|---|
| 1777835875 | 15.56° C | 34% | 1015.3 hPa | 0 mm | - | 640 W/m² | - |
| 1777835572 | 15.56° C | 36% | 1015.4 hPa | 0 mm | - | 665 W/m² | - |
| 1777835269 | 15° C | 39% | 1015.2 hPa | 0 mm | - | 157 W/m² | - |
| 1777834966 | 15.56° C | 37% | 1015.4 hPa | 0 mm | - | 681 W/m² | - |
| 1777834663 | 15° C | 40% | 1015.5 hPa | 0 mm | - | 722 W/m² | - |
| 1777834358 | 15.56° C | 38% | 1015.4 hPa | 0 mm | - | 230 W/m² | - |
| 1777834053 | 14.44° C | 41% | 1015.8 hPa | 0 mm | - | 320 W/m² | - |
| 1777833750 | 13.89° C | 41% | 1015.8 hPa | 0 mm | - | 769 W/m² | - |
| 1777833446 | 14.44° C | 40% | 1015.8 hPa | 0 mm | - | 193 W/m² | - |
| 1777833143 | 15° C | 43% | 1015.8 hPa | 0 mm | - | 182 W/m² | - |
| 1777832841 | 15° C | 39% | 1015.8 hPa | 0 mm | - | 688 W/m² | - |
| 1777832540 | 14.44° C | 41% | 1015.9 hPa | 0 mm | - | 148 W/m² | - |
| 1777832236 | 15° C | 40% | 1015.9 hPa | 0 mm | - | 670 W/m² | - |
| 1777831933 | 15° C | 40% | 1016 hPa | 0 mm | - | 102 W/m² | - |
| 1777831629 | 13.89° C | 39% | 1016.1 hPa | 0 mm | - | 133 W/m² | - |
| 1777831328 | 14.44° C | 40% | 1016.2 hPa | 0 mm | - | 113 W/m² | - |
| 1777831024 | 13.89° C | 40% | 1016.4 hPa | 0 mm | - | 141 W/m² | - |
| 1777830723 | 13.89° C | 42% | 1016.5 hPa | 0 mm | - | 138 W/m² | - |
| 1777830418 | 14.44° C | 42% | 1016.4 hPa | 0 mm | - | 117 W/m² | - |
| 1777830116 | 13.89° C | 39% | 1016.4 hPa | 0 mm | - | 97 W/m² | - |
| 1777829811 | 13.89° C | 40% | 1016.5 hPa | 0 mm | - | 94 W/m² | - |
| 1777829507 | 13.89° C | 40% | 1016.5 hPa | 0 mm | - | 121 W/m² | - |
| 1777829204 | 13.33° C | 42% | 1016.4 hPa | 0 mm | - | 109 W/m² | - |
| 1777828901 | 13.33° C | 44% | 1016.6 hPa | 0 mm | - | 152 W/m² | - |
| 1777828597 | 12.78° C | 43% | 1016.7 hPa | 0 mm | - | 166 W/m² | - |
* Rain latest hour (hover to see other rain measurements)
** Current wind speed in m/s (hover to see current wind gust speed)